User: anonymous
Location: Oshawa
(43.9000°N, 78.8670°W)
Time: 10:46:51
(UTC-04:00)
Language:

CARTOSAT-1 - Orbit

View from above orbital plane
View from above orbital plane
View from above satellite
View from above satellite

Ground track
Ground track

The orbit data is extracted from the following two-line orbital elements,

1 28649U 05017A   14210.15261044  .00000278  00000-0  40228-4 0  4489
2 28649 097.8319 283.3281 0001708 129.7497 230.3883 14.83474412499715
Epoch (UTC): 29 July 2014 03:39:45
Eccentricity: 0.0001708
inclination: 97.8319°
perigee height: 617 km
apogee height: 619 km
right ascension of ascending node: 283.3281°
argument of perigee: 129.7497°
revolutions per day: 14.83474412
mean anomaly at epoch: 230.3883°
orbit number at epoch: 49971

The dashed part of the orbit path shows where the satellite is in the earth's shadow,  

DLR